Time,TemperatureF,DewpointF,PressureIn,WindDirection,WindDirectionDegrees,WindSpeedMPH,WindSpeedGustMPH,Humidity,HourlyPrecipIn,Conditions,Clouds,dailyrainin,SoftwareType,DateUTC
2013-06-30 00:03:00,65.5,60.2,29.83,North,1,5.0,12.0,83,0.00,RA,RA,0.00,WeatherDisplay:10.37,2013-06-30 05:03:00,
2013-06-30 00:13:00,65.7,59.0,29.83,North,6,9.0,22.0,79,0.00,OVC,OVC,0.00,WeatherDisplay:10.37,2013-06-30 05:13:00,
2013-06-30 00:23:00,65.7,58.6,29.84,NE,36,6.0,16.0,78,0.00,OVC,OVC,0.00,WeatherDisplay:10.37,2013-06-30 05:23:00,
2013-06-30 00:33:00,65.3,58.3,29.83,NNE,27,3.0,17.0,78,0.00,OVC,OVC,0.00,WeatherDisplay:10.37,2013-06-30 05:33:00,
2013-06-30 00:43:00,64.9,58.3,29.84,North,2,5.0,8.0,79,0.00,OVC,OVC,0.00,WeatherDisplay:10.37,2013-06-30 05:43:00,
2013-06-30 00:53:00,64.8,58.4,29.84,NNE,21,3.0,8.0,80,0.00,OVC,OVC,0.00,WeatherDisplay:10.37,2013-06-30 05:53:00,
2013-06-30 01:03:00,64.6,58.6,29.84,North,359,6.0,10.0,81,0.00,OVC,OVC,0.00,WeatherDisplay:10.37,2013-06-30 06:03:00,
2013-06-30 01:13:00,64.6,59.3,29.85,North,3,8.0,16.0,83,0.00,OVC,OVC,0.00,WeatherDisplay:10.37,2013-06-30 06:13:00,
2013-06-30 01:23:00,64.4,59.1,29.84,NNE,28,6.0,10.0,83,0.00,OVC,OVC,0.00,WeatherDisplay:10.37,2013-06-30 06:23:00,
2013-06-30 01:33:00,64.6,58.6,29.84,NNE,16,6.0,16.0,81,0.00,OVC,OVC,0.00,WeatherDisplay:10.37,2013-06-30 06:33:00,
2013-06-30 01:43:00,64.6,57.6,29.84,NNE,24,8.0,15.0,78,0.00,OVC,OVC,0.00,WeatherDisplay:10.37,2013-06-30 06:43:00,
2013-06-30 01:53:00,64.6,57.2,29.84,North,354,8.0,16.0,77,0.00,OVC,OVC,0.00,WeatherDisplay:10.37,2013-06-30 06:53:00,
2013-06-30 02:03:00,64.6,57.2,29.85,North,10,3.0,14.0,77,0.00,OVC,OVC,0.00,WeatherDisplay:10.37,2013-06-30 07:03:00,
2013-06-30 02:13:00,64.4,57.4,29.85,NNE,18,8.0,16.0,78,0.00,OVC,OVC,0.00,WeatherDisplay:10.37,2013-06-30 07:13:00,
2013-06-30 02:23:00,64.1,57.5,29.85,North,356,3.0,13.0,79,0.00,OVC,OVC,0.00,WeatherDisplay:10.37,2013-06-30 07:23:00,
2013-06-30 02:33:00,63.8,57.8,29.85,North,2,3.0,13.0,81,0.00,OVC,OVC,0.00,WeatherDisplay:10.37,2013-06-30 07:33:00,
2013-06-30 02:43:00,63.4,58.2,29.85,North,357,2.0,10.0,83,0.00,OVC,OVC,0.00,WeatherDisplay:10.37,2013-06-30 07:43:00,
2013-06-30 02:53:00,63.0,58.0,29.86,North,8,8.0,16.0,84,0.00,OVC,OVC,0.00,WeatherDisplay:10.37,2013-06-30 07:53:00,
2013-06-30 03:03:00,62.7,57.2,29.86,North,7,7.0,16.0,82,0.00,OVC,OVC,0.00,WeatherDisplay:10.37,2013-06-30 08:03:00,
2013-06-30 03:13:00,62.2,56.7,29.86,NNE,22,6.0,15.0,82,0.00,OVC,OVC,0.00,WeatherDisplay:10.37,2013-06-30 08:13:00,
2013-06-30 03:23:00,61.9,56.0,29.86,NNE,17,9.0,16.0,81,0.00,OVC,OVC,0.00,WeatherDisplay:10.37,2013-06-30 08:23:00,
2013-06-30 03:33:00,61.5,55.3,29.86,NNE,14,3.0,10.0,80,0.00,OVC,OVC,0.00,WeatherDisplay:10.37,2013-06-30 08:33:00,
2013-06-30 03:43:00,61.3,54.1,29.87,North,10,6.0,13.0,77,0.00,OVC,OVC,0.00,WeatherDisplay:10.37,2013-06-30 08:43:00,
2013-06-30 03:53:00,61.2,53.2,29.87,NE,45,6.0,13.0,75,0.00,OVC,OVC,0.00,WeatherDisplay:10.37,2013-06-30 08:53:00,
2013-06-30 04:03:00,60.8,52.8,29.87,North,7,5.0,12.0,75,0.00,FEW,FEW,0.00,WeatherDisplay:10.37,2013-06-30 09:03:00,
2013-06-30 04:13:00,60.3,52.7,29.87,North,8,3.0,10.0,76,0.00,FEW,FEW,0.00,WeatherDisplay:10.37,2013-06-30 09:13:00,
2013-06-30 04:23:00,59.9,52.3,29.87,North,5,3.0,15.0,76,0.00,FEW,FEW,0.00,WeatherDisplay:10.37,2013-06-30 09:23:00,
2013-06-30 04:33:00,59.5,52.3,29.88,NNE,14,5.0,12.0,77,0.00,FEW,FEW,0.00,WeatherDisplay:10.37,2013-06-30 09:33:00,
2013-06-30 04:43:00,59.4,52.1,29.88,North,359,2.0,8.0,77,0.00,FEW,FEW,0.00,WeatherDisplay:10.37,2013-06-30 09:43:00,
2013-06-30 04:53:00,59.0,52.1,29.88,North,3,5.0,8.0,78,0.00,FEW,FEW,0.00,WeatherDisplay:10.37,2013-06-30 09:53:00,
2013-06-30 05:03:00,58.6,52.1,29.89,North,2,1.0,7.0,79,0.00,CLR,CLR,0.00,WeatherDisplay:10.37,2013-06-30 10:03:00,
2013-06-30 05:13:00,58.6,52.1,29.89,NNW,344,0.0,8.0,79,0.00,CLR,CLR,0.00,WeatherDisplay:10.37,2013-06-30 10:13:00,
2013-06-30 05:23:00,58.3,52.5,29.90,North,350,2.0,8.0,81,0.00,CLR,CLR,0.00,WeatherDisplay:10.37,2013-06-30 10:23:00,
2013-06-30 05:33:00,57.9,52.5,29.90,NNW,346,3.0,7.0,82,0.00,CLR,CLR,0.00,WeatherDisplay:10.37,2013-06-30 10:33:00,
2013-06-30 05:43:00,57.7,52.9,29.90,North,356,2.0,8.0,84,0.00,CLR,CLR,0.00,WeatherDisplay:10.37,2013-06-30 10:43:00,
2013-06-30 05:53:00,57.4,52.9,29.91,North,353,2.0,6.0,85,0.00,CLR,CLR,0.00,WeatherDisplay:10.37,2013-06-30 10:53:00,
2013-06-30 06:03:00,57.4,52.9,29.91,North,360,3.0,6.0,85,0.00,CLR,CLR,0.00,WeatherDisplay:10.37,2013-06-30 11:03:00,
2013-06-30 06:13:00,57.4,53.2,29.91,NNW,342,2.0,8.0,86,0.00,CLR,CLR,0.00,WeatherDisplay:10.37,2013-06-30 11:13:00,
2013-06-30 06:23:00,57.5,53.3,29.92,North,352,5.0,8.0,86,0.00,CLR,CLR,0.00,WeatherDisplay:10.37,2013-06-30 11:23:00,
2013-06-30 06:33:00,58.5,53.7,29.92,North,0,1.0,7.0,84,0.00,CLR,CLR,0.00,WeatherDisplay:10.37,2013-06-30 11:33:00,
2013-06-30 06:43:00,60.4,53.5,29.92,North,9,3.0,10.0,78,0.00,CLR,CLR,0.00,WeatherDisplay:10.37,2013-06-30 11:43:00,
2013-06-30 06:53:00,60.6,53.0,29.93,North,359,2.0,8.0,76,0.00,CLR,CLR,0.00,WeatherDisplay:10.37,2013-06-30 11:53:00,
2013-06-30 07:03:00,61.7,53.0,29.93,North,350,5.0,9.0,73,0.00,SCT,SCT,0.00,WeatherDisplay:10.37,2013-06-30 12:03:00,
2013-06-30 07:13:00,61.7,53.0,29.93,NNW,346,3.0,14.0,73,0.00,SCT,SCT,0.00,WeatherDisplay:10.37,2013-06-30 12:13:00,
2013-06-30 07:23:00,61.5,52.8,29.93,NNW,332,6.0,13.0,73,0.00,SCT,SCT,0.00,WeatherDisplay:10.37,2013-06-30 12:23:00,
2013-06-30 07:33:00,62.2,52.7,29.93,NNW,341,3.0,10.0,71,0.00,SCT,SCT,0.00,WeatherDisplay:10.37,2013-06-30 12:33:00,
2013-06-30 07:43:00,63.7,53.3,29.93,North,351,2.0,8.0,69,0.00,SCT,SCT,0.00,WeatherDisplay:10.37,2013-06-30 12:43:00,
2013-06-30 07:53:00,63.9,52.8,29.94,NNE,14,8.0,17.0,67,0.00,SCT,SCT,0.00,WeatherDisplay:10.37,2013-06-30 12:53:00,
2013-06-30 08:03:00,63.7,52.9,29.94,North,4,5.0,13.0,68,0.00,FEW,FEW,0.00,WeatherDisplay:10.37,2013-06-30 13:03:00,
2013-06-30 08:13:00,65.1,53.1,29.94,North,358,7.0,14.0,65,0.00,FEW,FEW,0.00,WeatherDisplay:10.37,2013-06-30 13:13:00,
2013-06-30 08:23:00,65.1,53.1,29.94,North,358,5.0,18.0,65,0.00,FEW,FEW,0.00,WeatherDisplay:10.37,2013-06-30 13:23:00,
2013-06-30 08:33:00,65.7,53.1,29.94,North,356,7.0,15.0,64,0.00,FEW,FEW,0.00,WeatherDisplay:10.37,2013-06-30 13:33:00,
2013-06-30 08:43:00,66.8,53.3,29.94,North,7,5.0,15.0,62,0.00,FEW,FEW,0.00,WeatherDisplay:10.37,2013-06-30 13:43:00,
2013-06-30 08:53:00,67.6,54.2,29.95,North,9,5.0,12.0,62,0.00,FEW,FEW,0.00,WeatherDisplay:10.37,2013-06-30 13:53:00,
2013-06-30 09:03:00,67.8,54.3,29.95,NNW,345,2.0,14.0,62,0.00,CLR,CLR,0.00,WeatherDisplay:10.37,2013-06-30 14:03:00,
2013-06-30 09:13:00,67.1,54.5,29.95,NNE,27,5.0,14.0,64,0.00,CLR,CLR,0.00,WeatherDisplay:10.37,2013-06-30 14:13:00,
2013-06-30 09:23:00,67.8,54.7,29.95,North,357,6.0,14.0,63,0.00,CLR,CLR,0.00,WeatherDisplay:10.37,2013-06-30 14:23:00,
2013-06-30 09:33:00,68.5,55.0,29.95,NNW,346,3.0,10.0,62,0.00,CLR,CLR,0.00,WeatherDisplay:10.37,2013-06-30 14:33:00,
2013-06-30 09:43:00,70.8,55.8,29.95,NNW,333,3.0,14.0,59,0.00,CLR,CLR,0.00,WeatherDisplay:10.37,2013-06-30 14:43:00,
2013-06-30 09:53:00,71.2,55.2,29.95,NW,317,5.0,14.0,57,0.00,CLR,CLR,0.00,WeatherDisplay:10.37,2013-06-30 14:53:00,
2013-06-30 10:03:00,70.8,55.8,29.95,North,356,6.0,15.0,59,0.00,CLR,CLR,0.00,WeatherDisplay:10.37,2013-06-30 15:03:00,
2013-06-30 10:13:00,71.1,56.5,29.95,NNW,341,5.0,17.0,60,0.00,CLR,CLR,0.00,WeatherDisplay:10.37,2013-06-30 15:13:00,
2013-06-30 10:23:00,71.7,56.6,29.95,NNW,340,5.0,12.0,59,0.00,CLR,CLR,0.00,WeatherDisplay:10.37,2013-06-30 15:23:00,
2013-06-30 10:33:00,71.6,57.0,29.95,NE,40,5.0,14.0,60,0.00,CLR,CLR,0.00,WeatherDisplay:10.37,2013-06-30 15:33:00,
2013-06-30 10:43:00,72.9,56.8,29.96,North,9,8.0,17.0,57,0.00,CLR,CLR,0.00,WeatherDisplay:10.37,2013-06-30 15:43:00,
2013-06-30 10:53:00,72.6,57.5,29.96,NNW,345,3.0,14.0,59,0.00,CLR,CLR,0.00,WeatherDisplay:10.37,2013-06-30 15:53:00,
2013-06-30 11:03:00,73.6,57.4,29.96,WNW,300,3.0,16.0,57,0.00,CLR,CLR,0.00,WeatherDisplay:10.37,2013-06-30 16:03:00,
2013-06-30 11:13:00,72.8,57.6,29.96,NW,318,3.0,15.0,59,0.00,CLR,CLR,0.00,WeatherDisplay:10.37,2013-06-30 16:13:00,
2013-06-30 11:23:00,70.7,57.9,29.96,NW,324,3.0,16.0,64,0.00,SCT,SCT,0.00,WeatherDisplay:10.37,2013-06-30 16:23:00,
2013-06-30 11:33:00,72.4,58.7,29.96,North,1,3.0,8.0,62,0.00,SCT,SCT,0.00,WeatherDisplay:10.37,2013-06-30 16:33:00,
2013-06-30 11:43:00,72.1,57.9,29.96,North,6,8.0,21.0,61,0.00,SCT,SCT,0.00,WeatherDisplay:10.37,2013-06-30 16:43:00,
2013-06-30 11:53:00,74.4,59.6,29.95,North,360,7.0,13.0,60,0.00,SCT,SCT,0.00,WeatherDisplay:10.37,2013-06-30 16:53:00,
2013-06-30 12:03:00,76.0,59.2,29.96,North,1,6.0,18.0,56,0.00,SCT,SCT,0.00,WeatherDisplay:10.37,2013-06-30 17:03:00,
2013-06-30 12:13:00,75.0,59.2,29.96,North,11,6.0,22.0,58,0.00,SCT,SCT,0.00,WeatherDisplay:10.37,2013-06-30 17:13:00,
2013-06-30 12:23:00,76.1,59.7,29.96,North,7,7.0,17.0,57,0.00,SCT,SCT,0.00,WeatherDisplay:10.37,2013-06-30 17:23:00,
2013-06-30 12:33:00,75.9,58.1,29.96,NE,38,8.0,22.0,54,0.00,SCT,SCT,0.00,WeatherDisplay:10.37,2013-06-30 17:33:00,
2013-06-30 12:43:00,76.8,59.9,29.96,North,359,7.0,16.0,56,0.00,SCT,SCT,0.00,WeatherDisplay:10.37,2013-06-30 17:43:00,
2013-06-30 12:53:00,76.7,57.2,29.96,NNE,12,8.0,15.0,51,0.00,SCT,SCT,0.00,WeatherDisplay:10.37,2013-06-30 17:53:00,
2013-06-30 13:03:00,77.5,59.6,29.96,North,351,6.0,21.0,54,0.00,CLR,CLR,0.00,WeatherDisplay:10.37,2013-06-30 18:03:00,
2013-06-30 13:13:00,77.1,58.6,29.96,North,8,12.0,23.0,53,0.00,CLR,CLR,0.00,WeatherDisplay:10.37,2013-06-30 18:13:00,
2013-06-30 13:23:00,76.5,57.0,29.96,North,9,15.0,24.0,51,0.00,CLR,CLR,0.00,WeatherDisplay:10.37,2013-06-30 18:23:00,
2013-06-30 13:33:00,77.9,58.3,29.96,NNE,17,5.0,21.0,51,0.00,CLR,CLR,0.00,WeatherDisplay:10.37,2013-06-30 18:33:00,
2013-06-30 13:43:00,77.5,57.4,29.96,NNE,18,13.0,20.0,50,0.00,CLR,CLR,0.00,WeatherDisplay:10.37,2013-06-30 18:43:00,
2013-06-30 13:53:00,78.7,58.5,29.96,North,357,6.0,17.0,50,0.00,CLR,CLR,0.00,WeatherDisplay:10.37,2013-06-30 18:53:00,
2013-06-30 14:03:00,78.2,57.4,29.96,NE,35,9.0,20.0,49,0.00,CLR,CLR,0.00,WeatherDisplay:10.37,2013-06-30 19:03:00,
2013-06-30 14:13:00,78.9,58.7,29.96,North,358,6.0,18.0,50,0.00,CLR,CLR,0.00,WeatherDisplay:10.37,2013-06-30 19:13:00,
2013-06-30 14:23:00,78.4,56.5,29.96,NNW,344,14.0,28.0,47,0.00,CLR,CLR,0.00,WeatherDisplay:10.37,2013-06-30 19:23:00,
2013-06-30 14:33:00,78.1,54.4,29.96,NNE,15,8.0,16.0,44,0.00,CLR,CLR,0.00,WeatherDisplay:10.37,2013-06-30 19:33:00,
2013-06-30 14:43:00,78.6,56.1,29.96,NNE,23,9.0,23.0,46,0.00,CLR,CLR,0.00,WeatherDisplay:10.37,2013-06-30 19:43:00,
2013-06-30 14:53:00,78.4,55.3,29.96,NNE,28,12.0,22.0,45,0.00,CLR,CLR,0.00,WeatherDisplay:10.37,2013-06-30 19:53:00,
2013-06-30 15:03:00,78.4,56.5,29.96,NNE,18,5.0,23.0,47,0.00,FEW,FEW,0.00,WeatherDisplay:10.37,2013-06-30 20:03:00,
2013-06-30 15:13:00,78.8,53.8,29.96,NNE,14,10.0,21.0,42,0.00,FEW,FEW,0.00,WeatherDisplay:10.37,2013-06-30 20:13:00,
2013-06-30 15:23:00,78.6,56.1,29.96,NNE,29,7.0,23.0,46,0.00,FEW,FEW,0.00,WeatherDisplay:10.37,2013-06-30 20:23:00,
2013-06-30 15:33:00,78.6,56.1,29.96,NE,51,8.0,16.0,46,0.00,FEW,FEW,0.00,WeatherDisplay:10.37,2013-06-30 20:33:00,
2013-06-30 15:43:00,79.0,53.3,29.96,North,358,6.0,22.0,41,0.00,FEW,FEW,0.00,WeatherDisplay:10.37,2013-06-30 20:43:00,
2013-06-30 15:53:00,79.2,55.4,29.97,North,4,9.0,23.0,44,0.00,FEW,FEW,0.00,WeatherDisplay:10.37,2013-06-30 20:53:00,
2013-06-30 16:03:00,79.5,55.1,29.97,NNE,21,7.0,20.0,43,0.00,FEW,FEW,0.00,WeatherDisplay:10.37,2013-06-30 21:03:00,
2013-06-30 16:13:00,79.3,55.5,29.97,NNE,12,5.0,26.0,44,0.00,FEW,FEW,0.00,WeatherDisplay:10.37,2013-06-30 21:13:00,
2013-06-30 16:23:00,78.3,53.3,29.98,NNE,29,7.0,18.0,42,0.00,FEW,FEW,0.00,WeatherDisplay:10.37,2013-06-30 21:23:00,
2013-06-30 16:33:00,79.3,55.5,29.97,North,4,6.0,22.0,44,0.00,FEW,FEW,0.00,WeatherDisplay:10.37,2013-06-30 21:33:00,
2013-06-30 16:43:00,79.3,54.8,29.97,NNW,342,5.0,23.0,43,0.00,FEW,FEW,0.00,WeatherDisplay:10.37,2013-06-30 21:43:00,
2013-06-30 16:53:00,78.7,54.9,29.97,North,356,6.0,24.0,44,0.00,FEW,FEW,0.00,WeatherDisplay:10.37,2013-06-30 21:53:00,
2013-06-30 17:03:00,79.6,55.7,29.97,NNE,14,5.0,21.0,44,0.00,FEW,FEW,0.00,WeatherDisplay:10.37,2013-06-30 22:03:00,
2013-06-30 17:13:00,78.8,54.4,29.97,NNE,24,8.0,24.0,43,0.00,FEW,FEW,0.00,WeatherDisplay:10.37,2013-06-30 22:13:00,
2013-06-30 17:23:00,79.2,55.4,29.97,NE,34,6.0,18.0,44,0.00,FEW,FEW,0.00,WeatherDisplay:10.37,2013-06-30 22:23:00,
2013-06-30 17:33:00,79.2,55.4,29.98,North,10,6.0,20.0,44,0.00,FEW,FEW,0.00,WeatherDisplay:10.37,2013-06-30 22:33:00,
2013-06-30 17:43:00,77.8,54.1,29.98,North,9,8.0,22.0,44,0.00,FEW,FEW,0.00,WeatherDisplay:10.37,2013-06-30 22:43:00,
2013-06-30 17:53:00,77.9,54.8,29.98,North,1,6.0,16.0,45,0.00,FEW,FEW,0.00,WeatherDisplay:10.37,2013-06-30 22:53:00,
2013-06-30 18:03:00,77.7,54.1,29.98,NNE,20,10.0,22.0,44,0.00,FEW,FEW,0.00,WeatherDisplay:10.37,2013-06-30 23:03:00,
2013-06-30 18:13:00,77.2,52.9,29.99,NNE,23,9.0,21.0,43,0.00,FEW,FEW,0.00,WeatherDisplay:10.37,2013-06-30 23:13:00,
2013-06-30 18:23:00,76.6,53.6,29.99,ENE,57,7.0,17.0,45,0.00,FEW,FEW,0.00,WeatherDisplay:10.37,2013-06-30 23:23:00,
2013-06-30 18:33:00,75.9,53.6,29.99,NNE,26,6.0,17.0,46,0.00,FEW,FEW,0.00,WeatherDisplay:10.37,2013-06-30 23:33:00,
2013-06-30 18:43:00,74.8,52.0,29.99,NE,41,10.0,18.0,45,0.00,FEW,FEW,0.00,WeatherDisplay:10.37,2013-06-30 23:43:00,
2013-06-30 18:53:00,74.0,49.4,30.00,North,349,9.0,20.0,42,0.00,FEW,FEW,0.00,WeatherDisplay:10.37,2013-06-30 23:53:00,
2013-06-30 19:03:00,73.4,46.9,30.00,NNE,22,7.0,17.0,39,0.00,CLR,CLR,0.00,WeatherDisplay:10.37,2013-07-01 00:03:00,
2013-06-30 19:13:00,73.2,47.4,30.00,NE,42,6.0,14.0,40,0.00,CLR,CLR,0.00,WeatherDisplay:10.37,2013-07-01 00:13:00,
2013-06-30 19:23:00,73.2,48.1,30.00,North,8,2.0,14.0,41,0.00,CLR,CLR,0.00,WeatherDisplay:10.37,2013-07-01 00:23:00,
2013-06-30 19:33:00,72.9,46.4,30.00,NNE,24,7.0,16.0,39,0.00,CLR,CLR,0.00,WeatherDisplay:10.37,2013-07-01 00:33:00,
2013-06-30 19:43:00,72.5,47.5,30.00,North,10,5.0,13.0,41,0.00,CLR,CLR,0.00,WeatherDisplay:10.37,2013-07-01 00:43:00,
2013-06-30 19:53:00,71.9,47.6,30.00,NE,39,2.0,10.0,42,0.00,CLR,CLR,0.00,WeatherDisplay:10.37,2013-07-01 00:53:00,
2013-06-30 20:03:00,71.4,47.7,30.01,NNE,24,0.0,12.0,43,0.00,CLR,CLR,0.00,WeatherDisplay:10.37,2013-07-01 01:03:00,
2013-06-30 20:13:00,70.9,48.5,30.01,NNE,30,1.0,9.0,45,0.00,CLR,CLR,0.00,WeatherDisplay:10.37,2013-07-01 01:13:00,
2013-06-30 20:23:00,70.3,48.6,30.01,NNE,32,2.0,6.0,46,0.00,CLR,CLR,0.00,WeatherDisplay:10.37,2013-07-01 01:23:00,
2013-06-30 20:33:00,70.0,49.4,30.00,NE,38,2.0,7.0,48,0.00,CLR,CLR,0.00,WeatherDisplay:10.37,2013-07-01 01:33:00,
2013-06-30 20:43:00,69.2,50.3,30.01,NE,38,0.0,3.0,51,0.00,CLR,CLR,0.00,WeatherDisplay:10.37,2013-07-01 01:43:00,
2013-06-30 20:53:00,68.4,50.6,30.01,ENE,58,0.0,3.0,53,0.00,CLR,CLR,0.00,WeatherDisplay:10.37,2013-07-01 01:53:00,
2013-06-30 21:03:00,67.8,50.6,30.01,East,86,1.0,2.0,54,0.00,CLR,CLR,0.00,WeatherDisplay:10.37,2013-07-01 02:03:00,
2013-06-30 21:13:00,67.3,51.0,30.02,East,90,1.0,3.0,56,0.00,CLR,CLR,0.00,WeatherDisplay:10.37,2013-07-01 02:13:00,
2013-06-30 21:23:00,67.1,51.3,30.02,East,81,1.0,3.0,57,0.00,CLR,CLR,0.00,WeatherDisplay:10.37,2013-07-01 02:23:00,
2013-06-30 21:33:00,66.6,51.4,30.02,East,84,0.0,3.0,58,0.00,CLR,CLR,0.00,WeatherDisplay:10.37,2013-07-01 02:33:00,
2013-06-30 21:43:00,65.9,51.6,30.03,East,89,1.0,2.0,60,0.00,CLR,CLR,0.00,WeatherDisplay:10.37,2013-07-01 02:43:00,
2013-06-30 21:53:00,65.3,51.9,30.02,NE,50,0.0,0.0,62,0.00,CLR,CLR,0.00,WeatherDisplay:10.37,2013-07-01 02:53:00,
2013-06-30 22:03:00,64.9,52.0,30.03,ENE,66,0.0,0.0,63,0.00,CLR,CLR,0.00,WeatherDisplay:10.37,2013-07-01 03:03:00,
2013-06-30 22:13:00,64.7,52.2,30.03,East,90,1.0,3.0,64,0.00,CLR,CLR,0.00,WeatherDisplay:10.37,2013-07-01 03:13:00,
2013-06-30 22:23:00,64.6,52.5,30.03,East,90,1.0,2.0,65,0.00,CLR,CLR,0.00,WeatherDisplay:10.37,2013-07-01 03:23:00,
2013-06-30 22:33:00,64.2,52.6,30.03,East,90,0.0,2.0,66,0.00,CLR,CLR,0.00,WeatherDisplay:10.37,2013-07-01 03:33:00,
2013-06-30 22:43:00,64.0,52.8,30.03,East,90,0.0,0.0,67,0.00,CLR,CLR,0.00,WeatherDisplay:10.37,2013-07-01 03:43:00,
2013-06-30 22:53:00,63.7,52.5,30.04,East,90,0.0,2.0,67,0.00,CLR,CLR,0.00,WeatherDisplay:10.37,2013-07-01 03:53:00,
2013-06-30 23:03:00,63.3,52.6,30.04,East,90,0.0,2.0,68,0.00,CLR,CLR,0.00,WeatherDisplay:10.37,2013-07-01 04:03:00,
2013-06-30 23:13:00,62.4,52.5,30.04,East,90,0.0,1.0,70,0.00,CLR,CLR,0.00,WeatherDisplay:10.37,2013-07-01 04:13:00,
2013-06-30 23:23:00,62.1,52.9,30.05,East,90,0.0,2.0,72,0.00,CLR,CLR,0.00,WeatherDisplay:10.37,2013-07-01 04:23:00,
2013-06-30 23:33:00,61.7,53.3,30.05,East,90,0.0,2.0,74,0.00,CLR,CLR,0.00,WeatherDisplay:10.37,2013-07-01 04:33:00,
2013-06-30 23:43:00,61.8,53.8,30.05,East,90,1.0,3.0,75,0.00,CLR,CLR,0.00,WeatherDisplay:10.37,2013-07-01 04:43:00,
2013-06-30 23:53:00,61.5,53.5,30.05,East,91,0.0,2.0,75,0.00,CLR,CLR,0.00,WeatherDisplay:10.37,2013-07-01 04:53:00,